Torna al catalogo

COSMOS 1900 DEB

AttivoLEO
NORAD 43501·DEBRIS·🇷🇺 Russia

Lanciato Dec 12, 1987 da Baikonur Cosmodrome

Loading…

Prossimi Passaggi (prossime 24 ore)

TLE

AggiornatoSource: Space-Track

Epoca: Sep 14, 2026, 04:45 UTC

1 43501U 87101F   26257.19821528  .00000197  00000-0  64634-4 0  9992
2 43501  66.0818 111.4410 0029050  21.1371 339.0930 14.58611688249254

Traccia COSMOS 1900 DEB in tempo reale con AllMySat

Download on the App Store